WAT378 LMML-LICT

Flight info

Callsign WAT378
Flight time 0h 35m
Altitude 24000
Route GZO M622 MABOX M726 PIVOP
Aircraft B738/M-SDE2E3FGHIRWXY/LB1

Departure

Time 2026-04-27 09:38
Airport Malta International Airport (LMML)

Arrival

Time 2026-04-27 10:13
Airport Vincenzo Florio Airport Trapani-Birgi (LICT)
Time Latitude Longitude Altitude Speed Heading
2026-04-27 08:57 35.84907 14.49397 252 ft 0 kts 360°
2026-04-27 09:14 35.84901 14.49397 252 ft 2 kts 360°
2026-04-27 09:14 35.84886 14.49397 252 ft 2 kts 360°
2026-04-27 09:14 35.84871 14.49397 252 ft 2 kts 360°
2026-04-27 09:14 35.84860 14.49397 252 ft 0 kts 360°
2026-04-27 09:15 35.84847 14.49398 252 ft 2 kts 348°
2026-04-27 09:15 35.84833 14.49403 252 ft 2 kts 337°
2026-04-27 09:15 35.84819 14.49412 252 ft 2 kts 324°
2026-04-27 09:15 35.84811 14.49419 252 ft 0 kts 316°
2026-04-27 09:16 35.84807 14.49424 252 ft 0 kts 314°
2026-04-27 09:29 35.84810 14.49421 252 ft 3 kts 314°
2026-04-27 09:29 35.84830 14.49395 252 ft 3 kts 314°
2026-04-27 09:30 35.84843 14.49379 252 ft 1 kts 314°
2026-04-27 09:30 35.84846 14.49375 252 ft 0 kts 314°
2026-04-27 09:30 35.84871 14.49347 253 ft 8 kts 317°
2026-04-27 09:31 35.84913 14.49300 254 ft 7 kts 314°
2026-04-27 09:31 35.84936 14.49254 254 ft 5 kts 289°
2026-04-27 09:31 35.84940 14.49210 255 ft 6 kts 257°
2026-04-27 09:31 35.84913 14.49159 255 ft 8 kts 235°
2026-04-27 09:32 35.84915 14.49086 256 ft 10 kts 306°
2026-04-27 09:32 35.84961 14.49010 257 ft 12 kts 299°
2026-04-27 09:32 35.85009 14.48939 258 ft 13 kts 314°
2026-04-27 09:32 35.85053 14.48885 259 ft 14 kts 315°
2026-04-27 09:33 35.85128 14.48792 261 ft 16 kts 314°
2026-04-27 09:33 35.85212 14.48686 263 ft 18 kts 316°
2026-04-27 09:33 35.85309 14.48568 263 ft 20 kts 314°
2026-04-27 09:33 35.85410 14.48443 264 ft 20 kts 314°
2026-04-27 09:34 35.85507 14.48322 264 ft 19 kts 316°
2026-04-27 09:34 35.85590 14.48229 264 ft 13 kts 330°
2026-04-27 09:34 35.85655 14.48191 264 ft 7 kts 307°
2026-04-27 09:34 35.85661 14.48131 264 ft 6 kts 270°
2026-04-27 09:35 35.85662 14.48099 264 ft 0 kts 270°
2026-04-27 09:35 35.85662 14.48093 264 ft 3 kts 270°
2026-04-27 09:35 35.85662 14.48027 264 ft 9 kts 275°
2026-04-27 09:36 35.85666 14.47941 265 ft 10 kts 244°
2026-04-27 09:36 35.85593 14.47952 265 ft 15 kts 142°
2026-04-27 09:36 35.85554 14.47994 265 ft 0 kts 134°
2026-04-27 09:37 35.85546 14.48005 265 ft 9 kts 134°
2026-04-27 09:37 35.85437 14.48137 265 ft 34 kts 134°
2026-04-27 09:37 35.85183 14.48454 264 ft 80 kts 134°
2026-04-27 09:38 35.84639 14.49126 255 ft 139 kts 135°
2026-04-27 09:38 35.83844 14.50127 351 ft 177 kts 135°
2026-04-27 09:38 35.83026 14.51171 1110 ft 170 kts 135°
2026-04-27 09:38 35.82187 14.52170 1758 ft 172 kts 138°
2026-04-27 09:39 35.81269 14.53140 2209 ft 178 kts 141°
2026-04-27 09:39 35.80213 14.54012 2483 ft 194 kts 160°
2026-04-27 09:39 35.78844 14.53983 2718 ft 211 kts 204°
2026-04-27 09:39 35.77749 14.52718 2966 ft 231 kts 245°
2026-04-27 09:40 35.77463 14.50714 3372 ft 245 kts 271°
2026-04-27 09:40 35.77528 14.48571 3751 ft 259 kts 268°
2026-04-27 09:40 35.77300 14.46352 4341 ft 264 kts 257°
2026-04-27 09:40 35.76775 14.44171 4952 ft 269 kts 248°
2026-04-27 09:41 35.76055 14.42056 5581 ft 272 kts 253°
2026-04-27 09:41 35.75766 14.39797 6262 ft 271 kts 272°
2026-04-27 09:41 35.75993 14.37501 7004 ft 270 kts 284°
2026-04-27 09:41 35.76631 14.35373 7786 ft 267 kts 300°
2026-04-27 09:42 35.77765 14.33610 8536 ft 267 kts 316°
2026-04-27 09:42 35.79262 14.32244 8935 ft 272 kts 327°
2026-04-27 09:42 35.80984 14.31241 8963 ft 271 kts 335°
2026-04-27 09:42 35.82746 14.30438 8966 ft 270 kts 337°
2026-04-27 09:43 35.84510 14.29661 8977 ft 274 kts 337°
2026-04-27 09:43 35.86335 14.28826 9561 ft 279 kts 336°
2026-04-27 09:43 35.88101 14.27999 10475 ft 274 kts 335°
2026-04-27 09:43 35.89924 14.27128 10921 ft 287 kts 335°
2026-04-27 09:44 35.91825 14.26212 11332 ft 302 kts 335°
2026-04-27 09:44 35.93852 14.25238 11695 ft 317 kts 335°
2026-04-27 09:44 35.95957 14.24229 12059 ft 332 kts 335°
2026-04-27 09:44 35.98127 14.23192 12724 ft 337 kts 335°
2026-04-27 09:45 36.00324 14.22144 13413 ft 342 kts 335°
2026-04-27 09:45 36.02540 14.21085 14102 ft 345 kts 335°
2026-04-27 09:45 36.04707 14.19807 14760 ft 348 kts 327°
2026-04-27 09:45 36.06738 14.18200 15444 ft 351 kts 322°
2026-04-27 09:46 36.08716 14.16414 16139 ft 355 kts 321°
2026-04-27 09:46 36.10701 14.14555 16786 ft 360 kts 320°
2026-04-27 09:46 36.12711 14.12683 17450 ft 364 kts 321°
2026-04-27 09:46 36.14743 14.10825 18078 ft 368 kts 321°
2026-04-27 09:47 36.16824 14.08953 18741 ft 372 kts 321°
2026-04-27 09:47 36.18922 14.07083 19347 ft 376 kts 322°
2026-04-27 09:47 36.21067 14.05179 19999 ft 379 kts 322°
2026-04-27 09:47 36.23212 14.03279 20618 ft 382 kts 322°
2026-04-27 09:48 36.25382 14.01355 21199 ft 386 kts 322°
2026-04-27 09:48 36.27570 13.99412 21754 ft 390 kts 322°
2026-04-27 09:48 36.29759 13.97467 22379 ft 391 kts 321°
2026-04-27 09:48 36.31976 13.95494 22901 ft 395 kts 321°
2026-04-27 09:49 36.34237 13.93479 23425 ft 399 kts 321°
2026-04-27 09:49 36.36492 13.91467 23949 ft 402 kts 321°
2026-04-27 09:49 36.38764 13.89439 24151 ft 408 kts 321°
2026-04-27 09:49 36.41073 13.87377 24151 ft 406 kts 321°
2026-04-27 09:50 36.43338 13.85355 24153 ft 404 kts 321°
2026-04-27 09:50 36.45641 13.83297 24153 ft 404 kts 321°
2026-04-27 09:50 36.47899 13.81276 24153 ft 405 kts 321°
2026-04-27 09:50 36.50177 13.79235 24153 ft 405 kts 321°
2026-04-27 09:51 36.52466 13.77182 24152 ft 404 kts 321°
2026-04-27 09:51 36.54762 13.75123 24153 ft 404 kts 321°
2026-04-27 09:51 36.57034 13.73084 24153 ft 404 kts 321°
2026-04-27 09:51 36.59313 13.71036 24153 ft 404 kts 321°
2026-04-27 09:52 36.61577 13.69000 24152 ft 404 kts 321°
2026-04-27 09:52 36.63845 13.66960 24153 ft 404 kts 321°
2026-04-27 09:52 36.66106 13.64922 24153 ft 405 kts 321°
2026-04-27 09:52 36.68412 13.62844 24153 ft 405 kts 321°
2026-04-27 09:53 36.70676 13.60802 24153 ft 405 kts 321°
2026-04-27 09:53 36.72935 13.58763 24153 ft 405 kts 321°
2026-04-27 09:53 36.75235 13.56686 24153 ft 405 kts 321°
2026-04-27 09:53 36.77519 13.54622 24153 ft 405 kts 321°
2026-04-27 09:54 36.79804 13.52554 24153 ft 405 kts 321°
2026-04-27 09:54 36.82070 13.50502 24153 ft 405 kts 321°
2026-04-27 09:54 36.84346 13.48438 24153 ft 405 kts 321°
2026-04-27 09:54 36.86620 13.46375 24153 ft 405 kts 321°
2026-04-27 09:55 36.88887 13.44316 24132 ft 404 kts 321°
2026-04-27 09:55 36.91153 13.42258 23682 ft 401 kts 321°
2026-04-27 09:55 36.95519 13.38297 23243 ft 373 kts 321°
2026-04-27 09:56 36.97573 13.36433 22795 ft 360 kts 321°
2026-04-27 09:56 36.99572 13.34614 22080 ft 356 kts 321°
2026-04-27 09:56 37.01579 13.32782 21370 ft 351 kts 321°
2026-04-27 09:56 37.03511 13.31016 20680 ft 347 kts 321°
2026-04-27 09:57 37.05438 13.29254 20180 ft 336 kts 321°
2026-04-27 09:57 37.07286 13.27565 19741 ft 325 kts 321°
2026-04-27 09:57 37.09092 13.25914 19323 ft 315 kts 321°
2026-04-27 09:57 37.10839 13.24312 18924 ft 318 kts 321°
2026-04-27 09:58 37.12667 13.22626 18510 ft 334 kts 321°
2026-04-27 09:58 37.14586 13.20961 18037 ft 339 kts 326°
2026-04-27 09:58 37.16714 13.19719 17582 ft 339 kts 340°
2026-04-27 09:58 37.19055 13.19239 17134 ft 340 kts 352°
2026-04-27 09:59 37.21417 13.19151 16671 ft 338 kts 355°
2026-04-27 09:59 37.23758 13.19148 16224 ft 336 kts 356°
2026-04-27 09:59 37.26073 13.19158 15782 ft 333 kts 356°
2026-04-27 09:59 37.28388 13.19154 15332 ft 330 kts 355°
2026-04-27 10:00 37.30681 13.19132 14889 ft 328 kts 355°
2026-04-27 10:00 37.32938 13.19098 14438 ft 325 kts 355°
2026-04-27 10:00 37.35204 13.19058 14008 ft 322 kts 355°
2026-04-27 10:00 37.37437 13.19016 13581 ft 320 kts 355°
2026-04-27 10:01 37.39630 13.18973 13156 ft 317 kts 355°
2026-04-27 10:01 37.41842 13.18928 12734 ft 315 kts 355°
2026-04-27 10:01 37.44024 13.18885 12311 ft 312 kts 355°
2026-04-27 10:01 37.46160 13.18804 11902 ft 309 kts 352°
2026-04-27 10:02 37.48238 13.18281 11474 ft 302 kts 336°
2026-04-27 10:02 37.49991 13.16913 11090 ft 294 kts 316°
2026-04-27 10:02 37.51316 13.14973 10705 ft 290 kts 306°
2026-04-27 10:02 37.52501 13.12974 10437 ft 283 kts 306°
2026-04-27 10:03 37.53662 13.11027 10323 ft 271 kts 307°
2026-04-27 10:03 37.54775 13.09176 10221 ft 260 kts 307°
2026-04-27 10:03 37.55863 13.07373 9961 ft 256 kts 307°
2026-04-27 10:03 37.56936 13.05591 9612 ft 255 kts 306°
2026-04-27 10:04 37.57999 13.03821 9292 ft 253 kts 306°
2026-04-27 10:04 37.59053 13.02064 8969 ft 252 kts 307°
2026-04-27 10:04 37.60101 13.00322 8655 ft 250 kts 307°
2026-04-27 10:04 37.61156 12.98568 8341 ft 248 kts 307°
2026-04-27 10:05 37.62191 12.96848 8030 ft 247 kts 307°
2026-04-27 10:05 37.63219 12.95135 7726 ft 246 kts 307°
2026-04-27 10:05 37.64246 12.93422 7422 ft 245 kts 307°
2026-04-27 10:05 37.65286 12.91683 7122 ft 257 kts 307°
2026-04-27 10:06 37.66387 12.89844 6775 ft 262 kts 307°
2026-04-27 10:06 37.67473 12.88029 6417 ft 262 kts 307°
2026-04-27 10:06 37.68583 12.86173 5977 ft 265 kts 307°
2026-04-27 10:06 37.69640 12.84285 5637 ft 264 kts 302°
2026-04-27 10:07 37.70587 12.82296 5303 ft 262 kts 302°
2026-04-27 10:07 37.71597 12.80413 4981 ft 260 kts 306°
2026-04-27 10:07 37.72686 12.78623 4806 ft 252 kts 309°
2026-04-27 10:07 37.73743 12.76963 4860 ft 234 kts 309°
2026-04-27 10:08 37.74730 12.75393 4862 ft 225 kts 308°
2026-04-27 10:08 37.75705 12.73820 4800 ft 229 kts 308°
2026-04-27 10:08 37.76693 12.72220 4501 ft 231 kts 308°
2026-04-27 10:08 37.77673 12.70635 4173 ft 228 kts 308°
2026-04-27 10:09 37.78648 12.69059 3860 ft 225 kts 308°
2026-04-27 10:09 37.79605 12.67511 3545 ft 222 kts 308°
2026-04-27 10:09 37.80543 12.65992 3242 ft 220 kts 308°
2026-04-27 10:09 37.81474 12.64484 2941 ft 217 kts 308°
2026-04-27 10:10 37.82399 12.62986 2642 ft 214 kts 308°
2026-04-27 10:10 37.83282 12.61555 2359 ft 200 kts 308°
2026-04-27 10:10 37.84108 12.60214 2090 ft 187 kts 309°
2026-04-27 10:10 37.84874 12.58971 1869 ft 173 kts 309°
2026-04-27 10:11 37.85595 12.57802 1647 ft 158 kts 309°
2026-04-27 10:11 37.86265 12.56717 1421 ft 156 kts 308°
2026-04-27 10:11 37.86933 12.55633 1207 ft 155 kts 307°
2026-04-27 10:11 37.87600 12.54547 992 ft 155 kts 307°
2026-04-27 10:12 37.88256 12.53481 797 ft 154 kts 307°
2026-04-27 10:12 37.88917 12.52404 603 ft 155 kts 307°
2026-04-27 10:12 37.89578 12.51325 364 ft 155 kts 307°
2026-04-27 10:12 37.90240 12.50264 161 ft 153 kts 306°
2026-04-27 10:13 37.90887 12.49206 31 ft 141 kts 307°
2026-04-27 10:13 37.91345 12.48459 26 ft 76 kts 308°
2026-04-27 10:13 37.91576 12.48080 25 ft 45 kts 308°
2026-04-27 10:13 37.91765 12.47781 25 ft 41 kts 312°
2026-04-27 10:14 37.91867 12.47634 24 ft 14 kts 329°
2026-04-27 10:14 37.91920 12.47645 24 ft 2 kts 21°
2026-04-27 10:14 37.91922 12.47638 24 ft 1 kts 242°
2026-04-27 10:14 37.91897 12.47629 24 ft 9 kts 179°
2026-04-27 10:15 37.91801 12.47714 25 ft 25 kts 129°
2026-04-27 10:15 37.91661 12.47943 25 ft 37 kts 128°
2026-04-27 10:15 37.91504 12.48201 25 ft 36 kts 128°
2026-04-27 10:15 37.91351 12.48451 26 ft 34 kts 128°
2026-04-27 10:16 37.91206 12.48686 27 ft 33 kts 128°
2026-04-27 10:16 37.91068 12.48912 29 ft 31 kts 128°
2026-04-27 10:16 37.90939 12.49124 30 ft 29 kts 129°
2026-04-27 10:16 37.90816 12.49325 32 ft 27 kts 133°
2026-04-27 10:17 37.90658 12.49450 34 ft 26 kts 157°
2026-04-27 10:17 37.90495 12.49534 35 ft 20 kts 159°
2026-04-27 10:17 37.90427 12.49541 35 ft 8 kts 193°
2026-04-27 10:17 37.90382 12.49561 36 ft 6 kts 131°
2026-04-27 10:18 37.90358 12.49604 36 ft 5 kts 125°
2026-04-27 10:18 37.90342 12.49628 36 ft 2 kts 130°
2026-04-27 10:18 37.90334 12.49641 37 ft 2 kts 126°
2026-04-27 10:18 37.90316 12.49673 37 ft 4 kts 127°
2026-04-27 10:19 37.90298 12.49696 37 ft 3 kts 140°
2026-04-27 10:19 37.90268 12.49724 37 ft 4 kts 167°
2026-04-27 10:19 37.90251 12.49702 37 ft 3 kts 250°
2026-04-27 10:19 37.90244 12.49673 37 ft 2 kts 257°
2026-04-27 10:20 37.90243 12.49668 37 ft 0 kts 257°
2026-04-27 10:20 37.90243 12.49667 37 ft 1 kts 256°
2026-04-27 10:20 37.90242 12.49662 37 ft 0 kts 257°